Theta_e
329 338 329 323 311 310 307 309 315 313 315 319 322 319 319 320 317 314 336 340 340 342 339 347 347 347 347 347 347 346 346 346 344 342 340 339 338 337 337 336 335 335 334 334 333 334 333 334 333
330 324 324 320 308 303 307 311 312 315 318 322 322 321 320 318 328 329 334 340 342 342 337 343 345 347 346 347 347 346 346 345 343 341 338 337 337 337 336 336 335 334 334 333 332 332 332 332 332
328 322 318 313 309 303 307 311 315 317 319 320 319 323 321 319 328 332 339 341 342 339 335 339 344 347 347 348 347 346 345 344 342 340 338 336 336 336 336 335 335 334 334 333 331 330 331 331 331
325 323 318 309 304 305 307 312 316 317 316 319 321 318 324 329 330 336 341 341 341 339 340 341 345 347 347 347 348 347 346 344 341 340 339 337 336 336 335 334 334 333 333 333 332 330 330 330 329
326 322 312 308 306 305 306 312 318 316 316 317 319 316 320 330 336 340 340 339 337 338 338 342 344 346 347 346 346 347 347 345 344 341 339 338 336 335 335 334 333 332 332 332 333 332 332 331 330
318 318 308 304 307 305 311 314 317 315 315 317 317 317 321 333 336 338 339 337 340 336 336 337 338 341 344 345 345 346 345 345 344 342 341 338 337 336 335 334 333 332 332 333 332 331 330 330 331
315 313 308 308 306 305 311 316 315 315 315 316 320 313 322 330 336 337 337 338 340 337 335 335 340 342 336 341 342 343 343 343 342 342 341 340 338 337 336 336 334 333 332 333 333 333 331 330 330
318 314 307 308 306 304 311 314 314 315 313 319 323 311 314 329 336 336 336 337 338 337 335 334 335 339 341 343 335 337 339 339 339 338 337 334 334 334 334 333 335 335 334 334 333 332 333 333 332
316 309 306 307 304 305 309 311 312 314 315 317 320 317 323 333 334 333 332 332 333 336 336 336 334 335 336 338 337 333 333 334 334 333 331 330 336 335 333 330 331 333 334 334 334 333 333 333 331
313 308 307 310 310 309 308 309 312 312 312 313 316 322 328 330 329 329 329 328 330 332 336 337 336 335 335 333 337 341 340 341 340 338 338 336 336 335 333 327 326 329 330 331 332 333 333 329 329
310 308 311 310 310 311 308 308 311 310 309 313 313 317 326 326 327 327 329 331 331 334 335 336 337 337 336 334 334 335 335 337 337 337 337 337 336 336 335 335 334 333 324 331 330 330 330 330 330
305 308 311 310 307 309 309 311 308 309 311 314 315 318 325 326 327 328 329 331 331 333 335 336 337 337 337 336 335 335 334 334 334 335 336 336 336 335 335 334 334 334 333 331 331 330 331 330 330
303 305 307 306 306 307 309 308 309 311 314 314 316 318 321 325 328 330 332 334 333 332 333 334 336 336 337 337 336 336 335 334 334 334 335 335 334 334 334 334 334 333 333 331 331 330 330 329 329
303 304 303 304 305 306 306 306 308 309 313 312 314 317 321 323 326 329 331 331 332 333 335 337 334 334 337 337 337 337 337 336 334 333 333 334 333 333 333 332 332 332 332 331 330 329 329 328 328
303 300 302 303 303 304 306 302 303 309 309 309 310 312 316 322 326 326 329 331 333 334 336 336 336 333 333 338 338 338 338 336 335 333 333 333 332 331 331 330 329 330 330 330 329 329 329 327 326
300 300 297 300 301 302 304 301 303 306 304 305 306 307 308 310 315 323 328 330 332 334 334 336 336 337 338 338 338 338 338 337 336 335 333 332 331 331 330 329 328 329 328 328 327 326 325 325 325
296 294 295 298 300 300 301 301 301 305 306 305 306 307 308 309 311 311 311 315 325 331 332 333 335 336 337 338 338 338 338 337 337 336 334 333 331 330 330 329 330 330 329 328 328 327 326 325 326
292 293 293 295 297 297 298 299 301 303 304 305 306 307 307 306 306 305 306 308 310 319 327 331 334 335 336 336 336 336 336 336 336 335 334 334 333 332 331 332 332 332 330 330 330 328 329 328 327
296 294 293 294 297 297 296 297 300 301 302 303 304 304 302 301 303 305 306 307 307 310 316 324 328 332 334 334 332 330 329 331 333 334 334 333 334 333 333 332 332 333 331 331 331 330 328 327 328
296 294 293 294 297 296 294 295 297 298 298 298 297 298 299 301 303 304 305 306 307 307 308 312 322 328 331 333 334 333 333 334 334 335 334 334 333 333 332 332 331 332 330 330 329 328 325 325 326
295 294 295 294 294 294 292 292 293 295 295 298 299 300 300 299 300 302 304 305 307 307 306 308 312 321 327 331 332 332 332 332 331 332 332 333 333 333 331 331 330 329 328 326 327 326 324 320 324
290 295 295 293 291 287 292 287 291 292 294 295 296 298 299 300 301 301 303 304 306 307 309 308 310 312 321 328 329 328 327 326 329 330 331 332 333 333 333 332 331 329 329 327 327 327 325 323 319
292 296 295 293 292 291 289 286 289 291 291 293 295 296 297 299 300 300 301 303 305 307 309 310 311 311 312 318 327 327 326 327 329 329 329 330 331 331 330 331 331 329 329 327 327 326 324 324 321
296 294 293 292 289 284 290 287 286 287 290 292 294 295 296 297 298 300 301 302 303 305 305 307 307 306 309 312 313 313 313 315 317 317 318 320 321 323 325 326 328 328 328 327 327 327 325 323 323
294 290 283 281 281 281 285 283 284 290 291 292 292 294 296 296 297 298 298 299 300 301 302 303 304 303 305 307 308 311 312 313 313 313 314 315 316 317 318 320 322 323 324 325 324 323 323 324 322
291 288 284 277 278 281 284 281 284 291 292 292 292 294 296 296 296 297 298 299 299 299 300 301 301 301 302 303 304 306 307 308 308 309 309 309 310 311 313 315 318 320 321 322 323 323 322 322 322
291 286 290 282 278 281 283 284 289 291 289 290 291 292 293 294 295 296 297 298 298 298 298 298 298 298 299 300 301 301 301 302 303 304 304 304 305 305 307 309 310 312 316 319 321 322 323 323 323
293 293 285 287 278 276 280 281 284 287 286 289 290 291 292 293 294 295 296 297 296 296 296 297 296 294 295 297 297 297 297 297 298 299 299 299 300 301 302 303 304 306 308 310 313 317 320 321 322
290 289 289 288 285 278 277 281 291 287 288 288 289 291 292 292 293 294 296 296 295 295 294 294 293 293 293 294 295 294 294 294 295 295 295 295 297 297 298 299 300 301 303 304 305 308 310 313 316
292 289 289 285 281 283 283 281 291 290 290 290 289 290 292 292 293 294 295 295 294 293 292 292 292 291 291 292 293 292 292 292 292 292 292 293 293 294 295 296 297 298 298 300 300 301 303 304 307
Wind_Speed
4 7 2 4 5 5 2 3 1 6 7 3 8 2 1 4 3 5 1 8 14 17 16 15 14 15 13 15 14 13 13 15 13 11 10 10 10 10 10 9 8 9 9 8 8 8 8 7 8
6 3 4 2 5 6 4 3 5 4 5 8 7 4 3 3 2 5 9 7 16 16 15 15 11 14 13 13 14 13 12 12 12 10 9 9 9 9 9 8 8 7 8 7 7 7 6 6 6
2 3 4 3 2 2 3 4 6 7 5 6 5 1 1 3 2 7 3 13 16 15 14 13 11 14 13 13 13 11 11 11 11 10 9 8 8 7 7 7 6 6 6 6 6 5 5 5 4
3 4 3 5 2 2 3 3 6 11 3 1 1 5 3 3 1 5 10 15 16 14 13 13 11 14 13 10 12 12 12 11 10 9 8 8 7 7 6 6 4 3 4 5 4 4 3 3 2
1 2 4 3 1 1 1 0 7 8 4 3 1 4 2 3 3 7 14 13 13 13 12 14 8 13 12 12 10 10 11 10 9 8 8 8 7 7 6 5 4 3 2 2 3 2 1 1 1
3 2 5 5 1 0 1 3 7 4 3 5 2 3 4 4 6 9 13 13 13 14 12 12 9 7 10 11 11 10 10 9 8 8 7 8 7 6 6 5 5 5 4 4 3 3 2 2 2
2 3 2 1 0 2 2 6 6 4 4 4 2 1 4 6 7 10 11 12 13 13 12 11 12 10 6 9 9 9 9 9 8 7 6 6 5 6 6 4 4 4 3 5 6 6 5 5 5
2 3 3 2 3 3 5 5 1 3 3 2 1 1 4 7 11 9 9 10 11 12 12 12 11 11 11 10 6 9 10 11 10 9 7 6 5 5 5 5 7 7 8 7 6 6 7 8 8
2 4 5 3 5 3 5 5 2 1 3 2 1 2 4 11 12 9 7 8 9 10 12 12 11 11 11 10 9 6 5 5 6 7 7 7 7 7 8 6 3 7 8 8 9 9 9 8 9
4 4 3 1 1 3 6 4 6 4 4 4 4 4 6 10 12 12 11 11 12 12 13 12 12 11 10 8 10 11 10 9 9 8 8 8 7 7 6 5 6 7 8 8 10 10 8 8 7
3 7 4 3 2 1 5 4 3 3 4 3 3 5 9 9 11 12 12 12 13 12 10 12 12 11 11 9 7 5 6 6 7 11 9 9 7 6 6 5 6 7 8 7 8 8 7 8 7
6 3 3 5 3 3 4 3 4 4 4 5 2 1 9 12 12 12 12 12 12 13 14 13 13 12 12 8 8 8 7 7 7 8 10 8 6 8 8 6 7 7 6 7 7 6 8 9 10
4 1 2 1 1 2 3 1 2 4 2 2 1 2 4 8 9 9 10 10 12 13 14 14 13 13 12 12 8 8 8 8 9 9 10 9 9 8 8 8 7 7 7 7 8 8 8 9 10
2 2 1 0 2 1 3 2 2 2 2 2 1 1 1 5 7 8 10 11 12 12 14 14 14 13 13 12 13 9 8 9 9 9 10 12 9 8 8 8 8 8 8 8 9 9 9 9 10
2 3 2 4 2 2 3 5 6 1 5 5 4 2 3 3 5 9 10 11 11 12 12 13 13 14 13 15 13 10 9 9 9 9 11 12 12 11 11 9 9 9 9 11 10 10 10 10 10
4 2 7 4 4 1 5 12 4 5 3 3 5 4 4 3 6 6 8 10 11 12 13 13 12 14 16 14 12 10 10 9 9 9 9 12 13 13 12 10 10 10 9 9 9 9 10 10 10
3 5 9 5 1 1 5 6 3 6 6 4 4 4 5 6 6 8 7 8 9 11 13 13 14 15 15 14 12 12 12 10 10 9 9 12 13 13 12 10 10 11 9 9 9 10 10 10 11
8 10 3 5 3 2 4 9 3 6 7 6 7 7 9 10 9 11 10 8 7 8 10 12 11 13 13 9 9 8 9 9 9 10 10 13 11 13 12 11 12 10 10 10 10 12 10 11 11
7 6 6 3 2 1 4 8 5 5 6 8 10 9 9 9 8 10 11 10 8 6 7 9 10 11 9 8 7 8 9 9 9 9 12 12 12 13 12 11 11 11 12 13 13 12 12 11 10
11 11 7 3 4 1 1 6 5 5 6 9 10 10 11 10 11 13 13 13 12 10 9 7 7 8 8 7 7 7 5 6 8 7 9 11 12 12 12 12 12 12 10 13 13 11 8 7 7
12 16 14 6 4 4 2 4 2 7 12 11 12 9 12 12 13 14 14 14 14 14 13 11 8 6 6 8 6 6 6 6 6 6 7 8 10 11 12 13 11 11 9 10 11 10 11 9 6
12 3 10 13 7 6 3 2 3 6 12 14 13 14 14 14 14 13 14 15 15 13 12 12 13 12 7 4 5 7 7 7 6 6 6 7 8 10 11 12 12 10 8 9 9 8 9 8 10
3 8 8 4 7 6 5 3 4 5 9 10 11 12 13 13 14 15 15 14 15 14 13 12 14 15 14 12 6 4 5 6 6 6 8 9 7 8 10 10 11 9 8 9 11 10 10 9 10
13 10 9 6 2 7 11 8 2 2 5 8 9 11 12 12 13 14 13 13 14 14 14 14 15 15 15 13 12 10 8 7 6 7 6 5 5 6 8 9 10 11 10 10 10 11 12 10 10
2 12 3 3 4 7 3 4 6 6 7 6 7 10 11 11 12 14 15 15 15 15 15 13 15 15 14 13 13 12 11 9 8 8 6 8 6 6 8 10 9 9 11 11 12 12 12 11 9
8 9 5 8 6 4 1 6 6 5 4 3 5 7 10 12 11 12 13 13 13 14 15 15 15 15 15 14 14 12 12 8 7 8 7 6 7 8 11 10 9 10 11 11 11 8 9 10 10
6 4 2 7 2 3 8 5 3 1 2 3 8 10 11 11 11 11 11 11 12 13 14 14 14 14 15 15 12 13 13 13 11 12 10 9 10 9 11 12 12 11 11 11 12 9 12 10 11
1 5 3 0 7 4 5 7 8 10 6 7 10 10 10 10 11 9 10 10 10 10 11 12 13 14 13 14 13 12 13 12 11 10 12 13 12 13 13 13 13 13 12 12 12 10 11 13 11
4 5 4 3 1 3 5 5 10 10 7 9 7 6 8 9 9 8 8 8 9 10 11 11 12 12 12 12 11 11 12 12 11 11 11 12 13 13 13 13 14 14 14 13 12 13 13 13 12
2 3 3 4 5 1 1 5 12 9 5 4 3 6 6 7 8 7 8 8 9 10 10 11 11 12 12 12 11 11 11 11 11 11 12 12 12 12 13 13 14 14 14 15 15 15 14 15 15
Wind_Direction
151 177 228 228 223 237 206 144 114 138 152 87 134 200 299 357 327 27 102 141 143 153 153 162 155 156 157 154 150 149 132 137 133 133 132 129 126 125 120 117 111 109 105 104 104 101 96 84 71
134 186 222 236 246 217 142 126 170 114 103 137 138 147 193 83 57 95 141 159 157 152 158 161 154 159 160 163 157 157 150 142 141 141 137 134 135 136 129 123 120 115 111 109 110 110 105 93 76
209 269 255 257 257 260 127 164 134 119 122 162 144 326 80 69 95 154 98 159 158 155 162 157 163 162 161 160 161 160 153 152 156 152 148 143 144 134 131 130 131 129 120 115 113 116 119 111 93
231 186 168 253 186 88 9 120 140 147 136 137 135 141 129 20 85 166 146 159 158 157 162 141 161 160 162 164 171 172 160 157 159 163 162 157 154 148 158 149 145 142 139 139 132 123 121 110 91
221 235 222 239 204 102 201 53 169 155 127 132 200 122 98 100 114 137 144 155 159 164 166 163 160 163 164 164 171 160 159 160 163 167 171 172 173 167 167 169 167 159 163 160 116 151 146 128 315
200 280 226 209 129 139 188 173 165 168 133 127 206 156 92 103 144 151 149 162 173 164 168 168 165 155 162 168 172 175 174 172 173 176 179 188 187 184 194 195 199 195 198 193 203 218 239 259 266
298 253 239 172 161 189 86 156 189 164 148 134 87 212 95 165 145 157 155 168 170 167 172 176 183 181 172 177 179 181 177 175 174 181 189 195 194 202 209 192 209 211 229 240 230 226 246 266 277
296 260 206 182 201 127 131 174 253 213 116 86 317 101 111 143 143 155 152 180 167 176 180 181 186 191 196 190 186 185 187 191 191 187 184 200 207 221 220 235 216 238 243 242 247 251 255 267 273
270 234 215 198 176 132 146 193 148 88 145 167 138 12 58 137 145 151 158 174 179 187 189 188 189 193 197 205 189 205 219 235 199 187 189 202 231 215 216 224 252 243 254 255 255 257 261 265 260
238 240 192 69 135 162 171 197 157 197 167 189 187 128 110 152 166 171 181 189 190 191 199 196 197 198 200 202 207 212 209 217 218 223 222 220 228 233 247 248 224 248 257 265 265 264 266 254 265
181 235 164 160 92 102 153 166 158 194 196 237 228 168 148 172 187 191 197 201 202 201 203 213 205 206 205 206 207 207 216 220 225 226 224 228 232 225 221 237 223 234 214 249 232 241 244 258 267
228 221 201 145 127 133 150 118 174 233 59 69 33 111 167 184 197 204 204 204 206 210 213 209 217 213 213 215 211 213 216 218 223 225 224 228 230 234 239 238 239 238 243 251 252 256 260 262 263
243 178 190 53 151 128 127 118 328 242 228 251 20 183 210 204 205 212 216 217 209 220 219 218 216 220 219 218 223 224 225 220 230 228 226 228 236 238 242 245 246 247 248 249 254 254 257 259 261
49 224 122 125 208 219 196 143 278 83 35 114 278 316 272 238 223 220 216 218 221 220 218 219 218 221 228 224 226 226 229 232 231 232 232 228 238 242 245 247 247 250 249 252 253 258 262 263 264
111 204 201 208 187 167 207 216 221 297 305 301 304 326 333 279 239 234 242 238 229 226 227 221 217 221 221 226 228 229 231 234 234 235 236 236 233 239 244 248 250 250 253 255 259 257 258 262 262
160 221 222 132 178 86 227 240 128 356 341 322 322 327 329 319 280 278 270 257 249 241 230 227 219 221 221 225 225 227 231 232 235 235 235 231 233 235 242 245 246 249 250 251 253 255 259 261 264
177 202 212 189 135 130 226 245 107 43 37 20 359 321 307 329 5 10 334 297 267 250 245 237 229 229 227 230 232 233 235 233 235 236 236 236 234 234 237 243 246 246 246 247 249 251 252 261 262
174 199 186 205 75 193 187 239 164 349 348 330 309 311 344 353 7 348 344 331 309 279 259 252 240 238 235 236 237 243 244 244 245 244 241 236 234 231 234 242 245 245 249 249 249 253 256 257 268
162 140 156 111 68 234 220 257 281 341 316 320 345 349 359 11 355 12 12 9 2 356 307 270 257 243 236 224 230 241 241 243 248 247 251 250 250 246 245 247 250 244 247 251 255 256 258 260 261
198 197 190 115 63 262 56 279 335 347 29 31 19 21 20 24 20 18 17 20 22 15 5 339 285 265 242 240 233 241 259 248 252 254 253 254 258 256 256 254 255 252 252 254 255 248 249 251 248
198 216 218 215 113 88 281 234 75 85 50 47 42 42 38 32 23 20 23 23 19 17 8 8 358 322 270 252 254 258 267 269 270 267 271 264 252 255 255 257 258 259 250 253 259 247 232 249 241
204 191 163 152 166 234 326 232 122 72 60 51 42 42 40 35 36 34 28 25 22 16 18 24 27 25 13 309 260 261 270 286 302 299 302 284 265 259 260 259 261 258 254 247 248 248 238 229 246
163 163 151 165 198 187 203 256 115 139 62 57 47 43 36 35 37 40 36 34 32 27 28 34 40 35 28 31 8 332 308 311 320 318 313 311 301 277 273 269 268 259 252 251 254 251 244 239 242
134 113 84 78 99 231 219 211 129 91 111 86 65 49 37 31 32 36 36 34 35 31 31 31 36 35 31 36 41 40 31 3 351 349 332 329 316 315 309 295 286 284 278 267 259 257 253 247 244
160 150 126 148 211 256 123 168 62 109 91 66 49 47 42 39 35 28 26 27 27 25 23 24 26 31 24 29 32 30 28 29 25 11 359 347 345 344 341 329 314 299 289 285 280 277 273 263 251
178 199 181 189 194 157 137 185 120 88 12 28 58 58 49 40 38 36 29 26 23 23 23 20 25 26 22 21 23 24 23 17 17 12 3 360 349 343 339 333 325 317 307 296 286 274 270 268 268
168 182 87 104 90 179 141 81 103 184 68 87 69 58 45 33 29 31 30 30 27 24 23 20 21 21 19 19 17 19 17 15 8 5 3 358 352 344 343 340 335 331 323 315 306 287 278 267 263
186 129 136 33 157 183 162 170 156 177 110 98 66 51 44 33 27 25 24 24 25 25 20 24 23 22 14 12 13 11 10 8 6 5 2 356 347 345 341 339 337 332 328 324 317 303 299 293 284
142 177 75 83 3 159 150 119 133 125 98 87 72 50 35 28 23 23 22 25 26 26 23 22 20 18 15 11 8 9 5 2 1 2 358 352 342 343 339 337 333 331 330 328 321 312 305 300 297
66 94 97 210 167 49 13 109 135 105 109 114 87 42 27 22 17 21 24 24 25 20 17 16 12 11 8 1 359 4 1 359 1 357 352 348 344 341 339 336 335 333 333 332 328 323 319 310 303